Location: Unspecified
(33.9239°N, 118.0544°W)
Time: 06:52:06
(UTC-07:00)

Daily predictions for brighter satellites

Satellite Brightness Start Highest point End
(mag) Time Altitude Azimuth Time Altitude Azimuth Time Altitude Azimuth
Okean 2 Rocket 3.5 19:49:08 10° SSW 19:53:37 72° W 19:58:08 10° N
SJ-6B 2.9 19:49:48 10° SSE 19:53:49 67° ENE 19:57:56 10° N
Meteor 1-11 Rocket 4.1 19:48:39 10° SSE 19:54:09 45° E 19:59:35 10° NNE
Delta 2 Rocket 3.1 19:50:34 10° WSW 19:54:16 85° SSE 19:58:27 10° ENE
NOSS 2-3 (E) 3.8 19:49:51 10° SSW 19:54:24 87° ESE 19:59:32 10° NNE
HJ-1C 3.4 19:57:34 10° SSE 20:00:57 72° ENE 20:04:20 10° N
Cosmos 44 Rocket 3.8 19:57:16 10° NW 20:01:58 60° WSW 20:06:44 10° SSE
Cosmos 2360 Rocket 2.8 19:58:04 10° SSE 20:03:03 33° ESE 20:08:02 10° NE
Cosmos 1420 Rocket 4.4 19:59:10 10° SSW 20:04:19 71° WNW 20:09:30 10° NNE
SeaSat 1 3.4 20:00:32 10° NE 20:04:37 26° ESE 20:08:41 10° SSE
Cosmos 1850 Rocket 4.4 20:05:12 10° N 20:10:18 44° ENE 20:15:18 10° SE
COSMOS 2428 4.1 20:09:00 10° SE 20:12:24 16° E 20:15:48 10° ENE
Resurs 1-3 4.0 20:09:50 10° SE 20:14:00 45° ENE 20:18:11 10° N
Cosmos 1655 Rocket 4.3 20:08:37 10° S 20:14:53 78° W 20:21:15 10° N
USA 186 2.3 20:17:35 10° SSE 20:20:47 43° ENE 20:23:59 10° N
Okean 1 4.5 20:17:01 10° NNW 20:20:50 45° W 20:24:39 10° SSW
Meteor 1-19 Rocket 4.2 20:16:26 10° N 20:22:17 75° E 20:28:00 10° SSE
Cosmos 614 Rocket 4.0 20:18:12 10° NNW 20:23:20 83° WSW 20:28:30 10° SSE
Cosmos 1536 2.8 20:20:23 10° S 20:24:22 61° E 20:28:23 10° NNE
Cosmos 1300 Rocket 3.5 20:20:29 10° S 20:24:43 63° E 20:29:00 10° NNE
Meteor 1-5 Rocket 4.3 20:20:20 10° SSE 20:25:26 47° E 20:30:29 10° NNE
Lacrosse 5 rocket 3.2 20:23:14 10° WNW 20:26:18 24° WSW 20:29:28 10° S
Cosmos 1025 Rocket 4.4 20:23:16 10° NNE 20:26:23 19° ENE 20:27:32 18° E
CZ-2D R/B 3.2 20:22:58 10° SSE 20:26:49 86° E 20:30:41 10° N
Cosmos 1140 Rocket 3.9 20:21:53 10° NNW 20:27:05 64° WSW 20:32:14 10° S
Tiangong 1 1.7 20:25:01 10° NW 20:27:39 37° NNE 20:28:58 22° ENE
BREEZE M DEB (TANK) 3.7 20:12:56 10° SW 20:27:52 64° SE 20:31:47 10° ENE
Okean 1 Rocket 3.4 20:23:53 10° SSE 20:27:59 43° E 20:32:08 10° NNE
Meteosat 1 Rocket2 3.9 20:24:13 10° WSW 20:28:28 45° S 20:32:37 18° ESE
Cosmos 1939 Rocket 3.8 20:27:31 19° ESE 20:29:32 29° ENE 20:32:57 10° NNE
H-2A R/B 4.3 20:29:18 10° SSW 20:32:48 35° W 20:36:16 10° NNW
Cosmos 1607 4.3 20:27:41 10° NNW 20:34:01 54° ENE 20:38:34 19° SE
Spot 2 Rocket 3.4 20:30:06 10° SSE 20:35:10 75° ENE 20:40:16 10° N
Helios 1A 4.2 20:37:47 22° E 20:38:52 24° ENE 20:42:18 10° NNE
Meteor 2-4 Rocket 3.7 20:35:14 10° N 20:40:53 76° E 20:46:40 10° SSE
YAOGAN 6 3.5 20:44:35 28° E 20:44:54 29° ENE 20:47:59 10° NNE
Cosmos 1818 4.0 20:40:39 10° S 20:45:37 38° ESE 20:50:38 10° NE
ERS-1 Rocket 4.3 20:46:58 20° E 20:47:46 20° ENE 20:51:25 10° NNE
ASTRO E2 3.5 20:45:04 10° SW 20:48:38 31° SSE 20:49:05 30° SSE
Abrixas 2.8 20:46:34 10° WSW 20:49:07 51° NW 20:50:22 25° NNE
Okean 1-7 Rocket 4.1 20:49:11 10° N 20:53:25 39° E 20:54:27 34° ESE
ATLAS 3B R/B 3.2 20:48:08 10° NNW 20:54:23 40° NE 20:57:14 27° E
Resurs 01 Rocket 2.4 20:50:48 10° S 20:55:08 52° W 20:59:29 10° NNW
Cosmos 2266 Rocket 4.1 20:55:45 10° SSW 21:01:46 72° W 21:07:47 10° N
USA 267 3.4 20:58:15 22° SSE 21:02:44 71° SW 21:09:16 10° NW
Envisat 3.2 21:00:07 13° S 21:04:38 70° WSW 21:09:42 10° NNW
Cosmos 2263 Rocket 2.6 21:06:30 10° NNW 21:12:06 61° WSW 21:15:50 21° S
Lacrosse 5 4.2 21:08:36 10° W 21:12:41 24° NW 21:16:45 10° NNE
Aureole 3 Rocket 4.4 21:10:34 10° N 21:17:32 40° ENE 21:18:24 38° E
Intelsat 5-1 Rocket 4.4 20:52:48 10° WSW 21:17:47 54° S 21:22:07 34° SE
Cosmos 1844 Rocket 3.7 21:13:14 10° N 21:18:08 29° ENE 21:18:29 29° ENE
Cosmos 1515 4.2 21:14:58 10° N 21:18:01 47° NE 21:18:01 47° NE
Nadezhda 2 Rocket 4.4 21:13:03 10° S 21:19:11 90° E 21:25:27 10° N
Helios 1B rocket 2.3 21:15:48 10° NNE 21:19:55 89° ESE 21:20:52 53° S
Cosmos 2278 Rocket 4.3 21:18:11 10° NE 21:19:58 11° NE 21:20:01 11° NE
Spot 1 4.5 21:19:14 51° SE 21:20:18 64° ENE 21:25:17 10° N
Cosmos 2315 Rocket 3.9 21:15:26 10° N 21:21:44 83° E 21:24:52 32° S
GPS 2-05 Rocket1 4.3 21:20:19 10° W 21:22:33 28° WSW 21:22:33 28° WSW
Atlas Centaur 2 3.5 21:17:26 10° W 21:25:12 42° SSW 21:27:38 34° SSE
Cosmos 1302 Rocket 3.9 21:20:53 10° SSW 21:26:10 89° E 21:31:28 10° NNE
H-2A R/B 3.5 21:27:32 21° NE 21:27:32 21° NE 21:30:15 10° NNE
Cosmos 2237 4.5 21:22:01 10° SSW 21:27:40 69° WNW 21:33:21 10° NNE
Cosmos 1500 3.5 21:29:27 60° N 21:29:27 60° N 21:32:40 10° N
Cosmos 2219 Rocket 2.7 21:31:38 40° ENE 21:31:38 40° ENE 21:35:40 10° NNE
Cosmos 1745 Rocket 4.3 21:35:31 44° ENE 21:35:31 44° ENE 21:40:45 10° NNE
Cosmos 1486 Rocket 4.2 21:31:36 10° N 21:36:24 53° ENE 21:36:24 53° ENE
Delta 2 Rocket 3.6 21:32:50 10° W 21:36:35 66° NNW 21:36:35 66° NNW
Okean 2 3.9 21:37:45 10° NNW 21:41:40 55° W 21:41:40 55° W
SeaSat 1 4.1 21:37:41 10° N 21:42:06 33° WNW 21:46:29 10° WSW
FALCON 9 R/B 3.9 21:37:24 10° SSW 21:48:21 28° E 21:59:20 10° ENE
Cosmos 1975 4.1 21:45:06 34° N 21:45:06 34° N 21:47:27 10° N
Cosmos 1455 Rocket 4.4 21:46:54 32° NNE 21:46:54 32° NNE 21:49:23 10° NNE
NOSS 3-4 (A) 3.3 21:39:07 10° SSW 21:45:19 71° ESE 21:51:41 10° NE
NOSS 3-4 (C) 3.3 21:39:14 10° SSW 21:45:26 70° ESE 21:51:47 10° NE
Cosmos 2360 Rocket 4.1 21:42:12 10° WSW 21:46:59 28° WNW 21:51:47 10° N
COSMOS 2428 3.3 21:50:30 10° SW 21:56:07 56° WNW 22:01:45 10° NNE
Cosmos 1844 4.3 21:58:05 10° NNW 22:02:38 48° NNE 22:02:38 48° NNE
MetOp-A 4.3 22:05:42 70° WNW 22:05:42 70° WNW 22:10:38 10° NNW
Cosmos 2333 Rocket 3.1 22:11:02 39° NNE 22:11:02 39° NNE 22:14:30 10° NNE
Cosmos 2237 Rocket 4.0 22:23:58 20° NNE 22:23:58 20° NNE 22:25:40 10° NNE
ERS-1 Rocket 4.3 22:26:59 36° WNW 22:26:59 36° WNW 22:30:54 10° NNW
Nadezhda 1 Rocket 4.3 22:22:08 10° N 22:27:23 64° N 22:27:23 64° N
NOSS 3-2 (A) 3.9 22:24:57 10° NNW 22:32:34 84° NNE 22:32:34 84° NNE
ARGOS 4.2 22:35:33 41° WNW 22:35:33 41° WNW 22:39:32 10° NNW
USA 238 DEB 4.3 22:29:13 10° NW 22:35:58 48° WSW 22:35:58 48° WSW
USA 238 4.3 22:29:18 10° NW 22:36:03 48° WSW 22:36:03 48° WSW
ATLAS 3B R/B 3.8 22:39:07 10° NW 22:44:30 32° WSW 22:44:30 32° WSW
Cosmos 1844 Rocket 4.4 22:56:58 10° NW 23:00:10 27° WNW 23:00:10 27° WNW
Cosmos 2278 Rocket 3.8 22:59:06 10° NNW 23:01:51 30° NNW 23:01:51 30° NNW
H-2A R/B 4.2 23:08:11 21° NW 23:08:11 21° NW 23:10:09 10° NNW
NOSS 3-2 (C) 4.4 23:05:31 10° NW 23:11:38 57° WNW 23:11:38 57° WNW
Cosmos 2219 Rocket 4.4 23:13:13 19° WNW 23:14:25 20° WNW 23:18:33 10° N
CENTAUR R/B 3.7 23:25:00 10° NNW 23:30:54 50° N 23:30:54 50° N
